Regional Weather Roundup
Issued by NWS Kansas City/Pleasant Hill, MO

Home | Current Version | Previous Version | Graphics & Text | Print | Product List | Glossary Off
Versions: 1 2 3 4 5 6 7 8 9 10 11 12 13 14 15 16 17 18 19 20 21 22 23 24 25 26 27

000
ASUS43 KEAX 290110
RWREAX

WEATHER ROUNDUP FOR EASTERN KANSAS AND NORTHWEST MISSOURI
NATIONAL WEATHER SERVICE KANSAS CITY/PLEASANT HILL MO
800 PM CDT SAT MAY 28 2016

KSZ040-057-103>105-MOZ028-029-037-043-290200-
...KANSAS CITY METROPOLITAN AREA...

CITY           SKY/WX    TMP DP  RH WIND       PRES   REMARKS
K.C. INTL      PTCLDY    72  59  63 SW7       29.94R
K.C. DOWNTOWN  CLEAR     75  58  55 SW8       29.93R
LEES SUMMIT    CLEAR     73  59  61 SW9       29.95R
OLATHE - IXD   CLEAR     74  59  59 SW8       29.96R
OLATHE - OJC   CLEAR     73  58  59 SW6       29.95R
LAWRENCE       CLEAR     74  59  59 SW8       29.94R

$$

MOZ001>008-011>017-020>025-030>033-038>040-044>046-053-054-290200-
...NORTHERN AND CENTRAL MISSOURI...

CITY           SKY/WX    TMP DP  RH WIND       PRES   REMARKS
ST. JOSEPH     CLEAR     74  59  59 SW12      29.91R
MOSBY          CLEAR     73  57  56 SW5       29.93R
WARRENSBURG    CLEAR     72  61  68 SW5       29.94R
WHITEMAN AFB   CLEAR     74  62  65 W6        29.94R
CLINTON        CLEAR     75  63  64 SW7       29.95S
SEDALIA        CLEAR     75  62  64 SW6       29.96R
WARSAW         NOT AVBL
CHILLICOTHE      N/A     74  60  61 VRB5      29.92R
KIRKSVILLE     LGT RAIN  73  59  61 SW8G16    29.92R

$$

MOZ041-047>049-056>058-063>065-088>090-097-290200-
...EASTERN AND SOUTHERN MISSOURI...

CITY           SKY/WX    TMP DP  RH WIND       PRES   REMARKS
ST. LOUIS INTL MOCLDY    81  66  60 S8        29.93R
SPIRIT OF STL  CLOUDY    79  68  69 S8        29.91S
COLUMBIA       PTCLDY    76  63  64 SW8       29.94R
JEFFERSON CITY CLEAR     79  60  52 W7        29.92R
ROLLA          MOCLDY    75  67  76 CALM      29.93S THUNDER
SPRINGFIELD    CLEAR     76  62  62 W9        29.98R
BRANSON        PTCLDY    79  66  65 W8        30.00R
JOPLIN         CLEAR     75  63  66 SW8       29.98R
WEST PLAINS    CLEAR     75  65  70 CALM      30.02R

$$

IAZ060-094-KSZ022-034>040-054-083-096-NEZ052-066-093-290200-
...KANSAS...SOUTHEAST NEBRASKA AND IOWA...

CITY           SKY/WX    TMP DP  RH WIND       PRES   REMARKS
TOPEKA         CLEAR     76  57  51 SW5       29.94R
MANHATTAN      CLEAR     74  58  57 SW6       29.94R
EMPORIA        CLEAR     74  60  61 CALM      29.96R
CHANUTE        CLEAR     75  63  66 S6        29.96R
WICHITA        CLEAR     79  57  46 NW6       29.96R
OMAHA          PTCLDY    72  55  55 W16G22    29.86R
LINCOLN        CLEAR     74  57  55 W5        29.90R
FALLS CITY     CLEAR     74  59  59 W8        29.90R
LAMONI         MOCLDY    70  60  70 SW10      29.89R
DES MOINES     MOCLDY    73  58  59 SW15      29.83R THUNDER

$$





USA.gov is the U.S. government's official web portal to all federal, state and local government web resources and services.